Time,TemperatureF,DewpointF,PressureIn,WindDirection,WindDirectionDegrees,WindSpeedMPH,WindSpeedGustMPH,Humidity,HourlyPrecipIn,Conditions,Clouds,dailyrainin,SoftwareType,DateUTC
2013-02-20 00:00:00,36.9,22.7,29.51,West,266,20.7,20.7,56,0.01,RA,FEW,0.00,WeatherDisplay:10.37,2013-02-20 05:00:00,
2013-02-20 00:05:00,36.7,22.0,29.51,WSW,253,26.0,26.0,55,0.01,RA,FEW,0.00,WeatherDisplay:10.37,2013-02-20 05:05:00,
2013-02-20 00:10:00,36.5,21.8,29.51,WSW,248,21.9,21.9,55,0.01,CLR,FEW,0.00,WeatherDisplay:10.37,2013-02-20 05:10:00,
2013-02-20 00:15:00,36.4,21.3,29.51,West,261,26.5,26.5,54,0.01,CLR,FEW,0.00,WeatherDisplay:10.37,2013-02-20 05:15:00,
2013-02-20 00:20:00,36.2,21.1,29.51,West,265,21.9,21.9,54,0.00,CLR,FEW,0.00,WeatherDisplay:10.37,2013-02-20 05:20:00,
2013-02-20 00:25:00,36.0,21.4,29.52,WSW,249,21.9,21.9,55,0.00,CLR,FEW,0.00,WeatherDisplay:10.37,2013-02-20 05:25:00,
2013-02-20 00:30:00,36.0,21.4,29.52,West,270,17.0,17.0,55,0.00,CLR,FEW,0.00,WeatherDisplay:10.37,2013-02-20 05:30:00,
2013-02-20 00:35:00,35.9,21.3,29.52,WSW,241,23.0,23.0,55,0.00,CLR,FEW,0.00,WeatherDisplay:10.37,2013-02-20 05:35:00,
2013-02-20 00:40:00,35.8,21.6,29.52,West,271,14.0,14.0,56,0.00,CLR,FEW,0.00,WeatherDisplay:10.37,2013-02-20 05:40:00,
2013-02-20 00:45:00,35.7,21.5,29.52,West,268,19.6,19.6,56,0.00,CLR,FEW,0.00,WeatherDisplay:10.37,2013-02-20 05:45:00,
2013-02-20 00:50:00,35.6,21.4,29.52,West,273,16.1,16.1,56,0.00,CLR,FEW,0.00,WeatherDisplay:10.37,2013-02-20 05:50:00,
2013-02-20 00:55:00,35.6,21.4,29.52,WSW,242,15.0,15.0,56,0.00,CLR,FEW,0.00,WeatherDisplay:10.37,2013-02-20 05:55:00,
2013-02-20 01:00:00,35.5,21.3,29.52,WSW,249,11.5,11.5,56,0.00,CLR,FEW,0.00,WeatherDisplay:10.37,2013-02-20 06:00:00,
2013-02-20 01:05:00,35.4,21.2,29.52,WSW,254,10.4,10.4,56,0.00,CLR,FEW,0.00,WeatherDisplay:10.37,2013-02-20 06:05:00,
2013-02-20 01:10:00,35.4,21.7,29.53,West,265,16.0,16.0,57,0.00,CLR,FEW,0.00,WeatherDisplay:10.37,2013-02-20 06:10:00,
2013-02-20 01:15:00,35.3,21.2,29.53,WSW,255,12.7,12.7,56,0.00,CLR,FEW,0.00,WeatherDisplay:10.37,2013-02-20 06:15:00,
2013-02-20 01:20:00,35.3,21.2,29.53,West,267,13.8,13.8,56,0.00,CLR,FEW,0.00,WeatherDisplay:10.37,2013-02-20 06:20:00,
2013-02-20 01:25:00,35.2,21.1,29.53,WNW,294,11.5,11.5,56,0.00,CLR,FEW,0.00,WeatherDisplay:10.37,2013-02-20 06:25:00,
2013-02-20 01:30:00,35.2,21.1,29.54,WNW,287,8.1,8.1,56,0.00,CLR,FEW,0.00,WeatherDisplay:10.37,2013-02-20 06:30:00,
2013-02-20 01:35:00,35.1,21.4,29.54,SSW,206,10.0,10.0,57,0.00,CLR,FEW,0.00,WeatherDisplay:10.37,2013-02-20 06:35:00,
2013-02-20 01:40:00,34.9,21.2,29.54,WSW,255,11.5,11.5,57,0.00,CLR,FEW,0.00,WeatherDisplay:10.37,2013-02-20 06:40:00,
2013-02-20 01:45:00,34.8,21.1,29.54,West,275,12.0,12.0,57,0.00,CLR,FEW,0.00,WeatherDisplay:10.37,2013-02-20 06:45:00,
2013-02-20 01:50:00,34.7,21.0,29.53,West,273,12.7,12.7,57,0.00,CLR,FEW,0.00,WeatherDisplay:10.37,2013-02-20 06:50:00,
2013-02-20 01:55:00,34.7,21.0,29.54,WSW,256,11.0,11.0,57,0.00,CLR,FEW,0.00,WeatherDisplay:10.37,2013-02-20 06:55:00,
2013-02-20 02:00:00,34.6,20.9,29.54,West,275,18.4,18.4,57,0.00,CLR,FEW,0.00,WeatherDisplay:10.37,2013-02-20 07:00:00,
2013-02-20 02:05:00,34.5,20.8,29.54,West,259,17.3,17.3,57,0.00,CLR,FEW,0.00,WeatherDisplay:10.37,2013-02-20 07:05:00,
2013-02-20 02:10:00,34.4,21.1,29.55,West,268,13.8,13.8,58,0.00,CLR,FEW,0.00,WeatherDisplay:10.37,2013-02-20 07:10:00,
2013-02-20 02:15:00,34.3,20.6,29.55,West,266,11.5,13.7,57,0.00,CLR,FEW,0.00,WeatherDisplay:10.37,2013-02-20 07:15:00,
2013-02-20 02:20:00,34.2,20.9,29.54,West,261,11.5,11.5,58,0.00,CLR,FEW,0.00,WeatherDisplay:10.37,2013-02-20 07:20:00,
2013-02-20 02:25:00,34.1,20.9,29.54,WSW,238,9.2,10.1,58,0.00,CLR,FEW,0.00,WeatherDisplay:10.37,2013-02-20 07:25:00,
2013-02-20 02:30:00,34.0,20.8,29.54,West,271,17.3,17.3,58,0.00,CLR,FEW,0.00,WeatherDisplay:10.37,2013-02-20 07:30:00,
2013-02-20 02:35:00,33.8,21.0,29.55,WSW,247,13.8,13.8,59,0.00,CLR,FEW,0.00,WeatherDisplay:10.37,2013-02-20 07:35:00,
2013-02-20 02:40:00,33.8,21.0,29.55,West,267,10.0,10.0,59,0.00,CLR,FEW,0.00,WeatherDisplay:10.37,2013-02-20 07:40:00,
2013-02-20 02:45:00,33.7,20.9,29.55,WSW,242,20.7,20.7,59,0.00,CLR,FEW,0.00,WeatherDisplay:10.37,2013-02-20 07:45:00,
2013-02-20 02:50:00,33.7,20.9,29.55,WSW,242,11.5,11.5,59,0.00,CLR,FEW,0.00,WeatherDisplay:10.37,2013-02-20 07:50:00,
2013-02-20 02:55:00,33.6,20.8,29.56,West,267,9.0,9.0,59,0.00,CLR,FEW,0.00,WeatherDisplay:10.37,2013-02-20 07:55:00,
2013-02-20 03:00:00,33.7,20.9,29.56,WSW,239,11.5,11.5,59,0.00,CLR,FEW,0.00,WeatherDisplay:10.37,2013-02-20 08:00:00,
2013-02-20 03:05:00,33.3,20.5,29.56,West,263,9.2,9.2,59,0.00,CLR,FEW,0.00,WeatherDisplay:10.37,2013-02-20 08:05:00,
2013-02-20 03:10:00,33.1,20.3,29.56,WSW,249,13.8,13.8,59,0.00,CLR,FEW,0.00,WeatherDisplay:10.37,2013-02-20 08:10:00,
2013-02-20 03:15:00,33.2,20.4,29.56,WSW,258,15.0,15.0,59,0.00,CLR,FEW,0.00,WeatherDisplay:10.37,2013-02-20 08:15:00,
2013-02-20 03:20:00,33.0,19.8,29.55,WSW,239,15.0,15.0,58,0.00,CLR,FEW,0.00,WeatherDisplay:10.37,2013-02-20 08:20:00,
2013-02-20 03:25:00,33.0,20.2,29.56,West,270,12.7,12.7,59,0.00,CLR,FEW,0.00,WeatherDisplay:10.37,2013-02-20 08:25:00,
2013-02-20 03:30:00,33.1,20.3,29.56,West,259,5.0,5.0,59,0.00,CLR,FEW,0.00,WeatherDisplay:10.37,2013-02-20 08:30:00,
2013-02-20 03:35:00,32.9,20.1,29.56,WSW,242,10.4,10.4,59,0.00,CLR,FEW,0.00,WeatherDisplay:10.37,2013-02-20 08:35:00,
2013-02-20 03:40:00,32.8,20.0,29.56,WSW,247,17.3,17.3,59,0.00,CLR,FEW,0.00,WeatherDisplay:10.37,2013-02-20 08:40:00,
2013-02-20 03:45:00,32.6,19.4,29.56,WSW,250,14.0,14.0,58,0.00,CLR,FEW,0.00,WeatherDisplay:10.37,2013-02-20 08:45:00,
2013-02-20 03:50:00,32.5,19.7,29.56,WSW,241,13.8,13.8,59,0.00,CLR,FEW,0.00,WeatherDisplay:10.37,2013-02-20 08:50:00,
2013-02-20 03:55:00,32.4,19.7,29.56,West,269,13.8,13.8,59,0.00,CLR,FEW,0.00,WeatherDisplay:10.37,2013-02-20 08:55:00,
2013-02-20 04:00:00,32.5,20.1,29.56,West,260,6.9,6.9,60,0.00,CLR,FEW,0.00,WeatherDisplay:10.37,2013-02-20 09:00:00,
2013-02-20 04:05:00,32.4,20.0,29.56,WSW,249,11.5,11.5,60,0.00,CLR,FEW,0.00,WeatherDisplay:10.37,2013-02-20 09:05:00,
2013-02-20 04:10:00,32.2,19.5,29.56,WSW,245,12.7,12.7,59,0.00,CLR,FEW,0.00,WeatherDisplay:10.37,2013-02-20 09:10:00,
2013-02-20 04:15:00,32.0,19.7,29.56,WSW,251,19.6,19.6,60,0.00,CLR,FEW,0.00,WeatherDisplay:10.37,2013-02-20 09:15:00,
2013-02-20 04:20:00,31.9,19.6,29.57,WSW,255,11.5,11.5,60,0.00,CLR,FEW,0.00,WeatherDisplay:10.37,2013-02-20 09:20:00,
2013-02-20 04:25:00,31.7,19.4,29.57,WSW,256,14.0,14.0,60,0.00,CLR,FEW,0.00,WeatherDisplay:10.37,2013-02-20 09:25:00,
2013-02-20 04:30:00,31.6,19.3,29.57,West,270,20.7,20.7,60,0.00,CLR,FEW,0.00,WeatherDisplay:10.37,2013-02-20 09:30:00,
2013-02-20 04:35:00,31.5,19.2,29.57,West,274,12.7,12.7,60,0.00,CLR,FEW,0.00,WeatherDisplay:10.37,2013-02-20 09:35:00,
2013-02-20 04:40:00,31.4,19.1,29.57,West,263,17.3,17.3,60,0.00,CLR,FEW,0.00,WeatherDisplay:10.37,2013-02-20 09:40:00,
2013-02-20 04:45:00,31.4,19.1,29.58,West,265,17.0,17.0,60,0.00,CLR,FEW,0.00,WeatherDisplay:10.37,2013-02-20 09:45:00,
2013-02-20 04:50:00,31.2,18.9,29.58,West,264,16.1,16.1,60,0.00,CLR,FEW,0.00,WeatherDisplay:10.37,2013-02-20 09:50:00,
2013-02-20 04:55:00,31.2,18.9,29.58,WSW,258,11.5,11.5,60,0.00,CLR,FEW,0.00,WeatherDisplay:10.37,2013-02-20 09:55:00,
2013-02-20 05:00:00,31.3,18.6,29.58,WSW,248,14.0,14.0,59,0.00,CLR,FEW,0.00,WeatherDisplay:10.37,2013-02-20 10:00:00,
2013-02-20 05:05:00,31.0,18.3,29.58,West,274,15.0,15.0,59,0.00,CLR,FEW,0.00,WeatherDisplay:10.37,2013-02-20 10:05:00,
2013-02-20 05:10:00,31.0,18.7,29.58,West,264,13.0,13.0,60,0.00,CLR,FEW,0.00,WeatherDisplay:10.37,2013-02-20 10:10:00,
2013-02-20 05:15:00,31.0,18.3,29.58,WSW,254,15.0,15.0,59,0.00,CLR,FEW,0.00,WeatherDisplay:10.37,2013-02-20 10:15:00,
2013-02-20 05:20:00,31.0,18.3,29.59,WSW,249,11.5,11.5,59,0.00,CLR,FEW,0.00,WeatherDisplay:10.37,2013-02-20 10:20:00,
2013-02-20 05:25:00,31.1,18.4,29.59,WNW,290,12.7,12.7,59,0.00,CLR,FEW,0.00,WeatherDisplay:10.37,2013-02-20 10:25:00,
2013-02-20 05:30:00,31.0,18.3,29.59,West,262,19.6,19.6,59,0.00,CLR,FEW,0.00,WeatherDisplay:10.37,2013-02-20 10:30:00,
2013-02-20 05:35:00,31.1,18.4,29.59,West,263,10.4,10.4,59,0.00,CLR,FEW,0.00,WeatherDisplay:10.37,2013-02-20 10:35:00,
2013-02-20 05:40:00,30.9,17.8,29.60,WSW,251,17.3,17.3,58,0.00,CLR,FEW,0.00,WeatherDisplay:10.37,2013-02-20 10:40:00,
2013-02-20 05:45:00,31.0,18.3,29.60,WSW,254,10.4,10.4,59,0.00,CLR,FEW,0.00,WeatherDisplay:10.37,2013-02-20 10:45:00,
2013-02-20 05:50:00,30.7,17.7,29.60,WSW,237,17.3,17.3,58,0.00,CLR,FEW,0.00,WeatherDisplay:10.37,2013-02-20 10:50:00,
2013-02-20 05:55:00,30.7,17.7,29.60,West,264,13.0,13.0,58,0.00,CLR,FEW,0.00,WeatherDisplay:10.37,2013-02-20 10:55:00,
2013-02-20 06:00:00,30.6,17.6,29.61,West,274,9.2,9.2,58,0.00,CLR,FEW,0.00,WeatherDisplay:10.37,2013-02-20 11:00:00,
2013-02-20 06:05:00,30.6,17.6,29.60,West,278,15.0,15.0,58,0.00,CLR,FEW,0.00,WeatherDisplay:10.37,2013-02-20 11:05:00,
2013-02-20 06:10:00,30.6,17.6,29.60,West,280,8.1,8.1,58,0.00,CLR,FEW,0.00,WeatherDisplay:10.37,2013-02-20 11:10:00,
2013-02-20 06:15:00,30.6,17.6,29.60,WNW,286,15.0,15.0,58,0.00,CLR,FEW,0.00,WeatherDisplay:10.37,2013-02-20 11:15:00,
2013-02-20 06:20:00,30.5,17.5,29.60,West,262,11.5,11.5,58,0.00,CLR,FEW,0.00,WeatherDisplay:10.37,2013-02-20 11:20:00,
2013-02-20 06:25:00,30.5,17.1,29.60,WNW,282,11.5,11.5,57,0.00,CLR,FEW,0.00,WeatherDisplay:10.37,2013-02-20 11:25:00,
2013-02-20 06:30:00,30.6,17.6,29.60,West,265,15.0,15.0,58,0.00,CLR,FEW,0.00,WeatherDisplay:10.37,2013-02-20 11:30:00,
2013-02-20 06:35:00,30.5,17.1,29.61,West,267,17.3,17.3,57,0.00,CLR,FEW,0.00,WeatherDisplay:10.37,2013-02-20 11:35:00,
2013-02-20 06:40:00,30.3,16.5,29.61,West,273,13.8,13.8,56,0.00,CLR,FEW,0.00,WeatherDisplay:10.37,2013-02-20 11:40:00,
2013-02-20 06:45:00,30.3,16.5,29.61,West,273,14.0,14.0,56,0.00,CLR,FEW,0.00,WeatherDisplay:10.37,2013-02-20 11:45:00,
2013-02-20 06:50:00,30.1,15.9,29.61,West,269,12.7,12.7,55,0.00,CLR,FEW,0.00,WeatherDisplay:10.37,2013-02-20 11:50:00,
2013-02-20 06:55:00,30.0,15.8,29.61,WSW,251,14.0,14.0,55,0.00,CLR,FEW,0.00,WeatherDisplay:10.37,2013-02-20 11:55:00,
2013-02-20 07:00:00,30.4,15.7,29.62,West,274,13.8,13.8,54,0.00,CLR,FEW,0.00,WeatherDisplay:10.37,2013-02-20 12:00:00,
2013-02-20 07:05:00,30.0,15.3,29.62,WSW,256,15.0,15.0,54,0.00,CLR,FEW,0.00,WeatherDisplay:10.37,2013-02-20 12:05:00,
2013-02-20 07:10:00,29.9,14.8,29.62,WSW,247,12.7,12.7,53,0.00,CLR,FEW,0.00,WeatherDisplay:10.37,2013-02-20 12:10:00,
2013-02-20 07:15:00,29.8,15.2,29.62,WSW,258,17.3,17.3,54,0.00,CLR,FEW,0.00,WeatherDisplay:10.37,2013-02-20 12:15:00,
2013-02-20 07:20:00,29.8,15.2,29.62,West,272,18.0,18.0,54,0.00,CLR,FEW,0.00,WeatherDisplay:10.37,2013-02-20 12:20:00,
2013-02-20 07:25:00,29.4,14.8,29.62,West,277,9.2,9.2,54,0.00,CLR,FEW,0.00,WeatherDisplay:10.37,2013-02-20 12:25:00,
2013-02-20 07:30:00,29.7,15.5,29.62,WSW,256,11.0,11.0,55,0.00,CLR,FEW,0.00,WeatherDisplay:10.37,2013-02-20 12:30:00,
2013-02-20 07:35:00,29.6,15.4,29.62,West,274,18.4,18.4,55,0.00,CLR,FEW,0.00,WeatherDisplay:10.37,2013-02-20 12:35:00,
2013-02-20 07:40:00,29.5,15.7,29.63,WSW,251,12.7,12.7,56,0.00,CLR,FEW,0.00,WeatherDisplay:10.37,2013-02-20 12:40:00,
2013-02-20 07:45:00,29.7,16.3,29.64,WSW,248,18.4,18.4,57,0.00,CLR,FEW,0.00,WeatherDisplay:10.37,2013-02-20 12:45:00,
2013-02-20 07:50:00,29.3,15.9,29.63,West,274,12.7,12.7,57,0.00,CLR,FEW,0.00,WeatherDisplay:10.37,2013-02-20 12:50:00,
2013-02-20 07:55:00,29.3,16.3,29.63,West,272,21.9,21.9,58,0.00,CLR,FEW,0.00,WeatherDisplay:10.37,2013-02-20 12:55:00,
2013-02-20 08:00:00,29.4,16.4,29.63,WSW,251,19.6,19.6,58,0.00,CLR,FEW,0.00,WeatherDisplay:10.37,2013-02-20 13:00:00,
2013-02-20 08:05:00,28.9,16.7,29.64,West,274,20.7,20.7,60,0.00,CLR,FEW,0.00,WeatherDisplay:10.37,2013-02-20 13:05:00,
2013-02-20 08:10:00,29.0,16.8,29.63,West,270,21.9,21.9,60,0.00,CLR,FEW,0.00,WeatherDisplay:10.37,2013-02-20 13:10:00,
2013-02-20 08:15:00,28.9,16.7,29.64,West,266,18.4,18.4,60,0.00,CLR,FEW,0.00,WeatherDisplay:10.37,2013-02-20 13:15:00,
2013-02-20 08:20:00,29.0,16.8,29.64,WSW,257,17.3,17.3,60,0.00,CLR,FEW,0.00,WeatherDisplay:10.37,2013-02-20 13:20:00,
2013-02-20 08:25:00,29.0,16.8,29.63,WNW,290,18.0,18.0,60,0.00,CLR,FEW,0.00,WeatherDisplay:10.37,2013-02-20 13:25:00,
2013-02-20 08:30:00,28.9,16.4,29.63,WNW,285,11.5,11.5,59,0.00,CLR,FEW,0.00,WeatherDisplay:10.37,2013-02-20 13:30:00,
2013-02-20 08:35:00,28.9,15.6,29.64,WNW,282,19.6,19.6,57,0.00,CLR,FEW,0.00,WeatherDisplay:10.37,2013-02-20 13:35:00,
2013-02-20 08:40:00,28.9,15.6,29.64,WNW,296,19.6,19.6,57,0.00,CLR,FEW,0.00,WeatherDisplay:10.37,2013-02-20 13:40:00,
2013-02-20 08:45:00,28.9,14.7,29.64,West,263,20.7,20.7,55,0.00,CLR,FEW,0.00,WeatherDisplay:10.37,2013-02-20 13:45:00,
2013-02-20 08:50:00,28.9,14.3,29.64,West,259,11.5,11.8,54,0.00,CLR,FEW,0.00,WeatherDisplay:10.37,2013-02-20 13:50:00,
2013-02-20 08:55:00,28.8,13.4,29.64,WSW,258,19.0,19.0,52,0.00,CLR,FEW,0.00,WeatherDisplay:10.37,2013-02-20 13:55:00,
2013-02-20 09:00:00,28.9,13.5,29.65,NW,319,17.0,17.0,52,0.00,CLR,FEW,0.00,WeatherDisplay:10.37,2013-02-20 14:00:00,
2013-02-20 09:05:00,29.0,12.7,29.65,WNW,285,19.6,19.6,50,0.00,CLR,FEW,0.00,WeatherDisplay:10.37,2013-02-20 14:05:00,
2013-02-20 09:10:00,28.8,12.0,29.65,WNW,286,19.6,19.6,49,0.00,CLR,FEW,0.00,WeatherDisplay:10.37,2013-02-20 14:10:00,
2013-02-20 09:15:00,29.0,12.7,29.65,West,280,17.3,17.3,50,0.00,CLR,FEW,0.00,WeatherDisplay:10.37,2013-02-20 14:15:00,
2013-02-20 09:20:00,28.9,11.2,29.64,WNW,290,23.0,23.0,47,0.00,CLR,FEW,0.00,WeatherDisplay:10.37,2013-02-20 14:20:00,
2013-02-20 09:25:00,28.8,11.6,29.64,NW,306,15.0,15.0,48,0.00,CLR,FEW,0.00,WeatherDisplay:10.37,2013-02-20 14:25:00,
2013-02-20 09:30:00,28.7,11.0,29.65,WSW,253,16.1,16.1,47,0.00,CLR,FEW,0.00,WeatherDisplay:10.37,2013-02-20 14:30:00,
2013-02-20 09:35:00,29.2,11.9,29.65,WSW,255,16.0,16.0,48,0.00,CLR,FEW,0.00,WeatherDisplay:10.37,2013-02-20 14:35:00,
2013-02-20 09:40:00,29.1,11.4,29.65,West,262,23.0,23.0,47,0.00,CLR,FEW,0.00,WeatherDisplay:10.37,2013-02-20 14:40:00,
2013-02-20 09:45:00,29.1,10.9,29.65,West,274,20.7,20.7,46,0.00,CLR,FEW,0.00,WeatherDisplay:10.37,2013-02-20 14:45:00,
2013-02-20 09:50:00,29.3,11.1,29.65,WNW,284,16.0,16.0,46,0.00,CLR,FEW,0.00,WeatherDisplay:10.37,2013-02-20 14:50:00,
2013-02-20 09:55:00,29.1,10.4,29.65,WSW,255,13.8,14.3,45,0.00,CLR,FEW,0.00,WeatherDisplay:10.37,2013-02-20 14:55:00,
2013-02-20 10:00:00,29.0,9.8,29.65,WNW,292,24.2,24.2,44,0.00,CLR,FEW,0.00,WeatherDisplay:10.37,2013-02-20 15:00:00,
2013-02-20 10:05:00,28.9,9.7,29.65,NW,311,26.5,26.5,44,0.00,CLR,FEW,0.00,WeatherDisplay:10.37,2013-02-20 15:05:00,
2013-02-20 10:10:00,28.8,10.1,29.65,NW,314,15.0,15.0,45,0.00,CLR,FEW,0.00,WeatherDisplay:10.37,2013-02-20 15:10:00,
2013-02-20 10:15:00,28.9,9.7,29.65,WNW,300,21.9,21.9,44,0.00,CLR,FEW,0.00,WeatherDisplay:10.37,2013-02-20 15:15:00,
2013-02-20 10:20:00,28.9,10.2,29.65,West,265,14.0,14.0,45,0.00,CLR,FEW,0.00,WeatherDisplay:10.37,2013-02-20 15:20:00,
2013-02-20 10:25:00,29.1,10.4,29.65,WSW,257,14.0,14.0,45,0.00,CLR,FEW,0.00,WeatherDisplay:10.37,2013-02-20 15:25:00,
2013-02-20 10:30:00,29.0,9.8,29.65,West,273,24.2,24.2,44,0.00,CLR,FEW,0.00,WeatherDisplay:10.37,2013-02-20 15:30:00,
2013-02-20 10:35:00,29.0,9.8,29.65,West,277,24.2,24.2,44,0.00,CLR,FEW,0.00,WeatherDisplay:10.37,2013-02-20 15:35:00,
2013-02-20 10:40:00,29.4,10.6,29.65,NW,313,16.1,16.1,45,0.00,CLR,FEW,0.00,WeatherDisplay:10.37,2013-02-20 15:40:00,
2013-02-20 10:45:00,29.0,9.8,29.65,WNW,289,21.9,21.9,44,0.00,CLR,FEW,0.00,WeatherDisplay:10.37,2013-02-20 15:45:00,
2013-02-20 10:50:00,28.6,9.4,29.65,WNW,295,16.1,16.1,44,0.00,CLR,FEW,0.00,WeatherDisplay:10.37,2013-02-20 15:50:00,
2013-02-20 10:55:00,28.8,9.6,29.65,WNW,288,15.0,15.0,44,0.00,CLR,FEW,0.00,WeatherDisplay:10.37,2013-02-20 15:55:00,
2013-02-20 11:00:00,28.9,8.6,29.65,WNW,286,20.7,20.7,42,0.00,CLR,FEW,0.00,WeatherDisplay:10.37,2013-02-20 16:00:00,
2013-02-20 11:05:00,28.8,9.1,29.64,West,280,15.0,15.0,43,0.00,CLR,FEW,0.00,WeatherDisplay:10.37,2013-02-20 16:05:00,
2013-02-20 11:10:00,29.0,9.8,29.64,WSW,255,11.5,11.5,44,0.00,CLR,FEW,0.00,WeatherDisplay:10.37,2013-02-20 16:10:00,
2013-02-20 11:15:00,29.3,9.5,29.63,NW,311,16.1,16.1,43,0.00,CLR,FEW,0.00,WeatherDisplay:10.37,2013-02-20 16:15:00,
2013-02-20 11:20:00,29.2,9.4,29.63,WNW,293,16.1,16.1,43,0.00,CLR,FEW,0.00,WeatherDisplay:10.37,2013-02-20 16:20:00,
2013-02-20 11:25:00,29.4,10.1,29.64,NNW,340,11.5,11.5,44,0.00,CLR,FEW,0.00,WeatherDisplay:10.37,2013-02-20 16:25:00,
2013-02-20 11:30:00,29.4,9.6,29.63,NW,308,15.0,15.0,43,0.00,CLR,FEW,0.00,WeatherDisplay:10.37,2013-02-20 16:30:00,
2013-02-20 11:35:00,29.1,8.3,29.63,NW,304,18.4,18.4,41,0.00,CLR,FEW,0.00,WeatherDisplay:10.37,2013-02-20 16:35:00,
2013-02-20 11:40:00,29.2,9.4,29.63,WNW,283,19.6,19.6,43,0.00,CLR,FEW,0.00,WeatherDisplay:10.37,2013-02-20 16:40:00,
2013-02-20 11:45:00,29.4,9.1,29.63,WNW,291,12.7,12.7,42,0.00,CLR,FEW,0.00,WeatherDisplay:10.37,2013-02-20 16:45:00,
2013-02-20 11:50:00,29.1,8.3,29.63,NW,312,20.0,20.0,41,0.00,CLR,FEW,0.00,WeatherDisplay:10.37,2013-02-20 16:50:00,
2013-02-20 11:55:00,29.2,9.4,29.63,West,264,13.8,13.8,43,0.00,CLR,FEW,0.00,WeatherDisplay:10.37,2013-02-20 16:55:00,
2013-02-20 12:00:00,29.7,9.9,29.63,WNW,283,20.7,20.7,43,0.00,CLR,FEW,0.00,WeatherDisplay:10.37,2013-02-20 17:00:00,
2013-02-20 12:05:00,30.0,10.2,29.63,West,276,11.5,11.5,43,0.00,CLR,FEW,0.00,WeatherDisplay:10.37,2013-02-20 17:05:00,
2013-02-20 12:10:00,29.8,8.9,29.63,WNW,292,18.4,18.4,41,0.00,CLR,FEW,0.00,WeatherDisplay:10.37,2013-02-20 17:10:00,
2013-02-20 12:15:00,29.4,8.0,29.63,NW,304,20.7,20.7,40,0.00,CLR,FEW,0.00,WeatherDisplay:10.37,2013-02-20 17:15:00,
2013-02-20 12:20:00,29.1,8.3,29.63,NW,304,18.4,18.4,41,0.00,CLR,FEW,0.00,WeatherDisplay:10.37,2013-02-20 17:20:00,
2013-02-20 12:25:00,29.1,8.3,29.64,WNW,287,20.7,20.7,41,0.00,CLR,FEW,0.00,WeatherDisplay:10.37,2013-02-20 17:25:00,
2013-02-20 12:30:00,29.1,8.8,29.64,West,266,19.0,19.0,42,0.00,CLR,FEW,0.00,WeatherDisplay:10.37,2013-02-20 17:30:00,
2013-02-20 12:35:00,29.0,8.2,29.63,WNW,299,21.9,21.9,41,0.00,CLR,FEW,0.00,WeatherDisplay:10.37,2013-02-20 17:35:00,
2013-02-20 12:40:00,29.0,9.3,29.62,West,277,16.1,16.1,43,0.00,CLR,FEW,0.00,WeatherDisplay:10.37,2013-02-20 17:40:00,
2013-02-20 12:45:00,29.3,9.0,29.63,West,279,12.7,12.7,42,0.00,CLR,FEW,0.00,WeatherDisplay:10.37,2013-02-20 17:45:00,
2013-02-20 12:50:00,29.2,8.9,29.63,West,271,14.0,14.0,42,0.00,CLR,FEW,0.00,WeatherDisplay:10.37,2013-02-20 17:50:00,
2013-02-20 12:55:00,29.2,8.9,29.63,West,281,20.7,20.7,42,0.00,CLR,FEW,0.00,WeatherDisplay:10.37,2013-02-20 17:55:00,
2013-02-20 13:00:00,29.2,8.9,29.63,West,276,19.6,19.6,42,0.00,CLR,FEW,0.00,WeatherDisplay:10.37,2013-02-20 18:00:00,
2013-02-20 13:05:00,28.7,8.5,29.63,WNW,289,21.9,21.9,42,0.00,CLR,FEW,0.00,WeatherDisplay:10.37,2013-02-20 18:05:00,
2013-02-20 13:10:00,28.7,9.0,29.63,WNW,296,20.7,20.7,43,0.00,CLR,FEW,0.00,WeatherDisplay:10.37,2013-02-20 18:10:00,
2013-02-20 13:15:00,28.6,9.4,29.63,West,260,20.0,20.0,44,0.00,CLR,FEW,0.00,WeatherDisplay:10.37,2013-02-20 18:15:00,
2013-02-20 13:20:00,28.7,9.0,29.63,WNW,293,19.6,19.6,43,0.00,CLR,FEW,0.00,WeatherDisplay:10.37,2013-02-20 18:20:00,
2013-02-20 13:25:00,28.8,9.6,29.63,WNW,293,24.0,24.0,44,0.00,CLR,FEW,0.00,WeatherDisplay:10.37,2013-02-20 18:25:00,
2013-02-20 13:30:00,28.7,9.0,29.63,WNW,285,22.0,22.0,43,0.00,CLR,FEW,0.00,WeatherDisplay:10.37,2013-02-20 18:30:00,
2013-02-20 13:35:00,28.8,9.6,29.63,WNW,284,19.6,19.6,44,0.00,CLR,FEW,0.00,WeatherDisplay:10.37,2013-02-20 18:35:00,
2013-02-20 13:40:00,28.8,9.6,29.63,WNW,295,19.6,19.6,44,0.00,CLR,FEW,0.00,WeatherDisplay:10.37,2013-02-20 18:40:00,
2013-02-20 13:45:00,28.7,10.0,29.63,West,272,16.0,16.0,45,0.00,CLR,FEW,0.00,WeatherDisplay:10.37,2013-02-20 18:45:00,
2013-02-20 13:50:00,28.6,9.9,29.63,WNW,298,19.6,19.6,45,0.00,CLR,FEW,0.00,WeatherDisplay:10.37,2013-02-20 18:50:00,
2013-02-20 13:55:00,28.6,10.4,29.63,West,273,16.0,16.0,46,0.00,CLR,FEW,0.00,WeatherDisplay:10.37,2013-02-20 18:55:00,
2013-02-20 14:00:00,29.2,10.5,29.63,West,275,23.0,23.0,45,0.00,CLR,FEW,0.00,WeatherDisplay:10.37,2013-02-20 19:00:00,
2013-02-20 14:05:00,29.9,10.6,29.63,West,263,19.0,19.0,44,0.00,CLR,FEW,0.00,WeatherDisplay:10.37,2013-02-20 19:05:00,
2013-02-20 14:10:00,30.1,10.3,29.63,West,260,25.0,25.0,43,0.00,CLR,FEW,0.00,WeatherDisplay:10.37,2013-02-20 19:10:00,
2013-02-20 14:15:00,29.7,9.9,29.63,West,269,24.2,24.2,43,0.00,CLR,FEW,0.00,WeatherDisplay:10.37,2013-02-20 19:15:00,
2013-02-20 14:20:00,29.6,9.8,29.63,WSW,257,19.6,19.6,43,0.00,CLR,FEW,0.00,WeatherDisplay:10.37,2013-02-20 19:20:00,
2013-02-20 14:25:00,29.5,10.2,29.63,WSW,253,17.0,17.0,44,0.00,CLR,FEW,0.00,WeatherDisplay:10.37,2013-02-20 19:25:00,
2013-02-20 14:30:00,30.0,10.7,29.63,WNW,303,23.0,23.0,44,0.00,CLR,FEW,0.00,WeatherDisplay:10.37,2013-02-20 19:30:00,
2013-02-20 14:35:00,29.6,10.3,29.63,WNW,294,19.6,19.6,44,0.00,CLR,FEW,0.00,WeatherDisplay:10.37,2013-02-20 19:35:00,
2013-02-20 14:40:00,29.7,9.9,29.64,West,279,24.2,24.2,43,0.00,CLR,FEW,0.00,WeatherDisplay:10.37,2013-02-20 19:40:00,
2013-02-20 14:45:00,29.6,9.8,29.64,West,265,19.6,19.6,43,0.00,CLR,FEW,0.00,WeatherDisplay:10.37,2013-02-20 19:45:00,
2013-02-20 14:50:00,29.3,9.0,29.64,West,263,25.3,25.3,42,0.00,CLR,FEW,0.00,WeatherDisplay:10.37,2013-02-20 19:50:00,
2013-02-20 14:55:00,29.4,8.6,29.64,WNW,294,19.6,19.6,41,0.00,CLR,FEW,0.00,WeatherDisplay:10.37,2013-02-20 19:55:00,
2013-02-20 15:00:00,29.1,7.2,29.64,West,278,19.6,19.6,39,0.00,CLR,FEW,0.00,WeatherDisplay:10.37,2013-02-20 20:00:00,
2013-02-20 15:05:00,28.9,7.6,29.64,WNW,285,18.4,18.4,40,0.00,CLR,FEW,0.00,WeatherDisplay:10.37,2013-02-20 20:05:00,
2013-02-20 15:10:00,29.3,9.0,29.64,West,276,20.7,20.7,42,0.00,CLR,FEW,0.00,WeatherDisplay:10.37,2013-02-20 20:10:00,
2013-02-20 15:15:00,29.4,9.6,29.65,WNW,285,21.9,21.9,43,0.00,CLR,FEW,0.00,WeatherDisplay:10.37,2013-02-20 20:15:00,
2013-02-20 15:20:00,29.0,8.2,29.65,WNW,303,26.5,26.5,41,0.00,CLR,FEW,0.00,WeatherDisplay:10.37,2013-02-20 20:20:00,
2013-02-20 15:25:00,29.0,8.2,29.65,West,263,19.6,19.6,41,0.00,CLR,FEW,0.00,WeatherDisplay:10.37,2013-02-20 20:25:00,
2013-02-20 15:30:00,29.3,9.0,29.65,WNW,284,19.6,19.6,42,0.00,CLR,FEW,0.00,WeatherDisplay:10.37,2013-02-20 20:30:00,
2013-02-20 15:35:00,29.2,9.4,29.65,West,261,19.6,19.6,43,0.00,CLR,FEW,0.00,WeatherDisplay:10.37,2013-02-20 20:35:00,
2013-02-20 15:40:00,29.2,9.4,29.65,WNW,286,16.0,16.0,43,0.00,CLR,FEW,0.00,WeatherDisplay:10.37,2013-02-20 20:40:00,
2013-02-20 15:45:00,29.0,9.3,29.66,West,281,17.3,17.3,43,0.00,CLR,FEW,0.00,WeatherDisplay:10.37,2013-02-20 20:45:00,
2013-02-20 15:50:00,29.0,9.3,29.66,West,277,19.6,19.6,43,0.00,CLR,FEW,0.00,WeatherDisplay:10.37,2013-02-20 20:50:00,
2013-02-20 15:55:00,29.0,9.3,29.66,WNW,296,10.4,10.4,43,0.00,CLR,FEW,0.00,WeatherDisplay:10.37,2013-02-20 20:55:00,
2013-02-20 16:00:00,29.0,9.3,29.66,NW,318,17.0,17.0,43,0.00,CLR,FEW,0.00,WeatherDisplay:10.37,2013-02-20 21:00:00,
2013-02-20 16:05:00,29.0,9.3,29.66,WNW,288,11.0,11.0,43,0.00,CLR,FEW,0.00,WeatherDisplay:10.37,2013-02-20 21:05:00,
2013-02-20 16:10:00,29.4,9.6,29.65,WSW,254,19.6,19.6,43,0.00,CLR,FEW,0.00,WeatherDisplay:10.37,2013-02-20 21:10:00,
2013-02-20 16:15:00,29.4,9.6,29.66,WSW,237,16.1,16.1,43,0.00,CLR,FEW,0.00,WeatherDisplay:10.37,2013-02-20 21:15:00,
2013-02-20 16:20:00,29.3,10.1,29.66,WSW,257,20.7,20.7,44,0.00,CLR,FEW,0.00,WeatherDisplay:10.37,2013-02-20 21:20:00,
2013-02-20 16:25:00,29.2,10.5,29.68,West,275,18.4,18.4,45,0.00,CLR,FEW,0.00,WeatherDisplay:10.37,2013-02-20 21:25:00,
2013-02-20 16:30:00,29.0,10.3,29.66,West,269,19.6,19.6,45,0.00,CLR,FEW,0.00,WeatherDisplay:10.37,2013-02-20 21:30:00,
2013-02-20 16:35:00,29.0,10.3,29.66,WNW,294,16.0,16.0,45,0.00,CLR,FEW,0.00,WeatherDisplay:10.37,2013-02-20 21:35:00,
2013-02-20 16:40:00,28.8,10.1,29.66,WNW,300,11.5,11.5,45,0.00,CLR,FEW,0.00,WeatherDisplay:10.37,2013-02-20 21:40:00,
2013-02-20 16:45:00,28.9,9.7,29.66,WNW,285,12.7,12.7,44,0.00,CLR,FEW,0.00,WeatherDisplay:10.37,2013-02-20 21:45:00,
2013-02-20 16:50:00,29.1,9.9,29.67,NW,312,11.0,11.0,44,0.00,CLR,FEW,0.00,WeatherDisplay:10.37,2013-02-20 21:50:00,
2013-02-20 16:55:00,29.0,8.7,29.67,WSW,254,18.4,18.4,42,0.00,CLR,FEW,0.00,WeatherDisplay:10.37,2013-02-20 21:55:00,
2013-02-20 17:00:00,28.9,8.1,29.67,WNW,283,19.6,19.6,41,0.00,CLR,FEW,0.00,WeatherDisplay:10.37,2013-02-20 22:00:00,
2013-02-20 17:05:00,28.9,8.1,29.67,West,278,15.0,15.0,41,0.00,CLR,FEW,0.00,WeatherDisplay:10.37,2013-02-20 22:05:00,
2013-02-20 17:10:00,28.9,8.6,29.67,WNW,283,16.1,16.1,42,0.00,CLR,FEW,0.00,WeatherDisplay:10.37,2013-02-20 22:10:00,
2013-02-20 17:15:00,28.9,8.6,29.67,WNW,282,11.5,11.5,42,0.00,CLR,FEW,0.00,WeatherDisplay:10.37,2013-02-20 22:15:00,
2013-02-20 17:20:00,28.9,9.2,29.68,NW,311,14.0,14.0,43,0.00,CLR,FEW,0.00,WeatherDisplay:10.37,2013-02-20 22:20:00,
2013-02-20 17:25:00,28.7,9.0,29.68,WNW,284,18.4,18.4,43,0.00,CLR,FEW,0.00,WeatherDisplay:10.37,2013-02-20 22:25:00,
2013-02-20 17:30:00,28.7,9.5,29.69,WNW,299,12.7,12.7,44,0.00,CLR,FEW,0.00,WeatherDisplay:10.37,2013-02-20 22:30:00,
2013-02-20 17:35:00,28.6,9.9,29.69,WNW,293,12.7,12.7,45,0.00,CLR,FEW,0.00,WeatherDisplay:10.37,2013-02-20 22:35:00,
2013-02-20 17:40:00,28.3,9.6,29.69,NW,309,24.0,24.0,45,0.00,CLR,FEW,0.00,WeatherDisplay:10.37,2013-02-20 22:40:00,
2013-02-20 17:45:00,28.0,9.9,29.70,West,271,17.3,17.3,46,0.00,CLR,FEW,0.00,WeatherDisplay:10.37,2013-02-20 22:45:00,
2013-02-20 17:50:00,27.4,9.8,29.70,NW,323,13.8,13.8,47,0.00,CLR,FEW,0.00,WeatherDisplay:10.37,2013-02-20 22:50:00,
2013-02-20 17:55:00,27.6,10.9,29.71,WNW,294,16.1,16.1,49,0.00,CLR,FEW,0.00,WeatherDisplay:10.37,2013-02-20 22:55:00,
2013-02-20 18:00:00,27.3,11.5,29.72,NW,304,17.3,17.3,51,0.00,CLR,FEW,0.00,WeatherDisplay:10.37,2013-02-20 23:00:00,
2013-02-20 18:05:00,27.2,11.4,29.71,NW,308,15.0,15.0,51,0.00,CLR,FEW,0.00,WeatherDisplay:10.37,2013-02-20 23:05:00,
2013-02-20 18:10:00,27.3,11.5,29.72,WNW,299,25.3,25.3,51,0.00,CLR,FEW,0.00,WeatherDisplay:10.37,2013-02-20 23:10:00,
2013-02-20 18:15:00,27.2,11.4,29.72,WNW,293,11.5,11.5,51,0.00,CLR,FEW,0.00,WeatherDisplay:10.37,2013-02-20 23:15:00,
2013-02-20 18:20:00,27.0,11.3,29.72,West,265,19.6,19.6,51,0.00,CLR,FEW,0.00,WeatherDisplay:10.37,2013-02-20 23:20:00,
2013-02-20 18:25:00,27.0,11.3,29.73,WNW,300,11.5,11.5,51,0.00,CLR,FEW,0.00,WeatherDisplay:10.37,2013-02-20 23:25:00,
2013-02-20 18:30:00,26.9,11.2,29.73,WNW,297,12.7,12.7,51,0.00,CLR,FEW,0.00,WeatherDisplay:10.37,2013-02-20 23:30:00,
2013-02-20 18:35:00,26.8,10.6,29.73,WNW,300,19.6,19.6,50,0.00,CLR,FEW,0.00,WeatherDisplay:10.37,2013-02-20 23:35:00,
2013-02-20 18:40:00,27.0,10.8,29.73,West,278,19.6,19.6,50,0.00,CLR,FEW,0.00,WeatherDisplay:10.37,2013-02-20 23:40:00,
2013-02-20 18:45:00,26.8,9.7,29.73,West,274,31.1,31.1,48,0.00,CLR,FEW,0.00,WeatherDisplay:10.37,2013-02-20 23:45:00,
2013-02-20 18:50:00,26.7,9.6,29.73,West,281,18.4,18.4,48,0.00,CLR,FEW,0.00,WeatherDisplay:10.37,2013-02-20 23:50:00,
2013-02-20 18:55:00,26.7,9.6,29.74,West,279,12.7,12.7,48,0.00,CLR,FEW,0.00,WeatherDisplay:10.37,2013-02-20 23:55:00,
2013-02-20 19:00:00,26.7,9.6,29.74,West,277,23.0,23.0,48,0.00,CLR,FEW,0.00,WeatherDisplay:10.37,2013-02-21 00:00:00,
2013-02-20 19:05:00,26.6,9.1,29.73,WNW,294,23.0,23.0,47,0.00,CLR,FEW,0.00,WeatherDisplay:10.37,2013-02-21 00:05:00,
2013-02-20 19:10:00,26.3,7.8,29.74,West,268,22.0,22.0,45,0.00,CLR,FEW,0.00,WeatherDisplay:10.37,2013-02-21 00:10:00,
2013-02-20 19:15:00,26.2,7.2,29.73,WNW,300,26.5,26.5,44,0.00,CLR,FEW,0.00,WeatherDisplay:10.37,2013-02-21 00:15:00,
2013-02-20 19:20:00,26.1,7.1,29.73,WNW,283,31.1,31.1,44,0.00,CLR,FEW,0.00,WeatherDisplay:10.37,2013-02-21 00:20:00,
2013-02-20 19:25:00,26.0,7.0,29.74,WNW,295,27.6,27.6,44,0.00,CLR,FEW,0.00,WeatherDisplay:10.37,2013-02-21 00:25:00,
2013-02-20 19:30:00,26.1,7.6,29.74,West,264,17.3,17.3,45,0.00,CLR,FEW,0.00,WeatherDisplay:10.37,2013-02-21 00:30:00,
2013-02-20 19:35:00,26.0,7.5,29.74,WNW,285,25.3,25.3,45,0.00,CLR,FEW,0.00,WeatherDisplay:10.37,2013-02-21 00:35:00,
2013-02-20 19:40:00,25.9,7.4,29.74,West,271,26.5,26.5,45,0.00,CLR,FEW,0.00,WeatherDisplay:10.37,2013-02-21 00:40:00,
2013-02-20 19:45:00,25.9,7.4,29.74,West,280,24.2,24.2,45,0.00,CLR,FEW,0.00,WeatherDisplay:10.37,2013-02-21 00:45:00,
2013-02-20 19:50:00,25.7,7.3,29.75,WNW,288,23.0,23.0,45,0.00,CLR,FEW,0.00,WeatherDisplay:10.37,2013-02-21 00:50:00,
2013-02-20 19:55:00,25.7,7.7,29.76,NW,308,19.6,19.6,46,0.00,CLR,FEW,0.00,WeatherDisplay:10.37,2013-02-21 00:55:00,
2013-02-20 20:00:00,25.6,7.7,29.76,NW,305,25.3,25.3,46,0.00,CLR,FEW,0.00,WeatherDisplay:10.37,2013-02-21 01:00:00,
2013-02-20 20:05:00,25.8,8.3,29.77,West,278,19.6,19.6,47,0.00,CLR,FEW,0.00,WeatherDisplay:10.37,2013-02-21 01:05:00,
2013-02-20 20:10:00,25.5,8.5,29.75,WNW,293,25.3,25.3,48,0.00,CLR,FEW,0.00,WeatherDisplay:10.37,2013-02-21 01:10:00,
2013-02-20 20:15:00,25.3,7.9,29.76,WNW,301,20.7,20.7,47,0.00,CLR,FEW,0.00,WeatherDisplay:10.37,2013-02-21 01:15:00,
2013-02-20 20:20:00,25.2,8.2,29.75,WNW,295,12.7,12.7,48,0.00,CLR,FEW,0.00,WeatherDisplay:10.37,2013-02-21 01:20:00,
2013-02-20 20:25:00,25.2,8.2,29.75,NW,313,25.0,25.0,48,0.00,CLR,FEW,0.00,WeatherDisplay:10.37,2013-02-21 01:25:00,
2013-02-20 20:30:00,25.1,8.1,29.75,WNW,297,24.2,24.2,48,0.00,CLR,FEW,0.00,WeatherDisplay:10.37,2013-02-21 01:30:00,
2013-02-20 20:35:00,25.0,8.5,29.75,West,259,13.8,13.8,49,0.00,CLR,FEW,0.00,WeatherDisplay:10.37,2013-02-21 01:35:00,
2013-02-20 20:40:00,25.1,9.0,29.76,West,277,11.5,11.5,50,0.00,CLR,FEW,0.00,WeatherDisplay:10.37,2013-02-21 01:40:00,
2013-02-20 20:45:00,25.3,9.2,29.76,WNW,296,12.7,12.7,50,0.00,CLR,FEW,0.00,WeatherDisplay:10.37,2013-02-21 01:45:00,
2013-02-20 20:50:00,24.9,8.9,29.75,WNW,291,24.2,24.2,50,0.00,CLR,FEW,0.00,WeatherDisplay:10.37,2013-02-21 01:50:00,
2013-02-20 20:55:00,24.9,8.9,29.75,WNW,289,23.0,23.0,50,0.00,CLR,FEW,0.00,WeatherDisplay:10.37,2013-02-21 01:55:00,
2013-02-20 21:00:00,24.8,8.8,29.75,WNW,288,3.5,3.5,50,0.00,CLR,FEW,0.00,WeatherDisplay:10.37,2013-02-21 02:00:00,
2013-02-20 21:05:00,24.7,9.1,29.76,NNW,333,13.8,13.8,51,0.00,CLR,FEW,0.00,WeatherDisplay:10.37,2013-02-21 02:05:00,
2013-02-20 21:10:00,24.6,9.0,29.75,NW,314,6.9,6.9,51,0.00,CLR,FEW,0.00,WeatherDisplay:10.37,2013-02-21 02:10:00,
2013-02-20 21:15:00,24.6,9.0,29.76,WNW,289,15.0,15.0,51,0.00,CLR,FEW,0.00,WeatherDisplay:10.37,2013-02-21 02:15:00,
2013-02-20 21:20:00,24.6,8.6,29.76,WNW,292,8.1,8.1,50,0.00,CLR,FEW,0.00,WeatherDisplay:10.37,2013-02-21 02:20:00,
2013-02-20 21:25:00,24.6,8.6,29.76,NNW,332,18.4,18.4,50,0.00,CLR,FEW,0.00,WeatherDisplay:10.37,2013-02-21 02:25:00,
2013-02-20 21:30:00,24.6,9.0,29.76,NW,307,15.0,15.0,51,0.00,CLR,FEW,0.00,WeatherDisplay:10.37,2013-02-21 02:30:00,
2013-02-20 21:36:00,24.5,8.9,29.76,NW,315,13.8,13.8,51,0.00,CLR,FEW,0.00,WeatherDisplay:10.37,2013-02-21 02:36:00,
2013-02-20 21:41:00,24.4,8.8,29.77,NW,313,16.1,16.1,51,0.00,CLR,FEW,0.00,WeatherDisplay:10.37,2013-02-21 02:41:00,
2013-02-20 21:46:00,24.4,8.8,29.77,WNW,302,12.7,12.7,51,0.00,CLR,FEW,0.00,WeatherDisplay:10.37,2013-02-21 02:46:00,
2013-02-20 21:51:00,24.3,8.7,29.77,NW,309,5.8,5.8,51,0.00,CLR,FEW,0.00,WeatherDisplay:10.37,2013-02-21 02:51:00,
2013-02-20 21:56:00,24.3,8.7,29.76,NW,305,17.3,17.3,51,0.00,CLR,FEW,0.00,WeatherDisplay:10.37,2013-02-21 02:56:00,
2013-02-20 22:01:00,24.3,9.2,29.77,West,269,13.8,13.8,52,0.00,CLR,FEW,0.00,WeatherDisplay:10.37,2013-02-21 03:01:00,
2013-02-20 22:06:00,24.3,9.2,29.77,West,277,10.4,10.4,52,0.00,CLR,FEW,0.00,WeatherDisplay:10.37,2013-02-21 03:06:00,
2013-02-20 22:11:00,24.3,9.2,29.77,WNW,283,18.4,18.4,52,0.00,CLR,FEW,0.00,WeatherDisplay:10.37,2013-02-21 03:11:00,
2013-02-20 22:16:00,24.2,9.1,29.78,NW,312,19.6,19.6,52,0.00,CLR,FEW,0.00,WeatherDisplay:10.37,2013-02-21 03:16:00,
2013-02-20 22:21:00,24.1,9.0,29.78,WNW,303,11.5,11.5,52,0.00,CLR,FEW,0.00,WeatherDisplay:10.37,2013-02-21 03:21:00,
2013-02-20 22:26:00,24.1,9.0,29.78,West,271,8.1,8.1,52,0.00,CLR,FEW,0.00,WeatherDisplay:10.37,2013-02-21 03:26:00,
2013-02-20 22:31:00,24.1,9.0,29.78,NW,316,12.7,12.7,52,0.00,CLR,FEW,0.00,WeatherDisplay:10.37,2013-02-21 03:31:00,
2013-02-20 22:36:00,24.1,9.0,29.79,West,280,9.0,9.0,52,0.00,CLR,FEW,0.00,WeatherDisplay:10.37,2013-02-21 03:36:00,
2013-02-20 22:41:00,24.1,9.0,29.79,WNW,294,16.1,16.1,52,0.00,CLR,FEW,0.00,WeatherDisplay:10.37,2013-02-21 03:41:00,
2013-02-20 22:46:00,24.0,8.9,29.79,NW,308,17.3,17.3,52,0.00,CLR,FEW,0.00,WeatherDisplay:10.37,2013-02-21 03:46:00,
2013-02-20 22:51:00,24.0,8.9,29.79,West,266,13.8,13.8,52,0.00,CLR,FEW,0.00,WeatherDisplay:10.37,2013-02-21 03:51:00,
2013-02-20 22:56:00,24.0,8.9,29.79,WNW,290,15.0,15.0,52,0.00,CLR,FEW,0.00,WeatherDisplay:10.37,2013-02-21 03:56:00,
2013-02-20 23:01:00,23.9,8.8,29.79,West,278,13.8,13.8,52,0.00,CLR,FEW,0.00,WeatherDisplay:10.37,2013-02-21 04:01:00,
2013-02-20 23:06:00,24.0,9.3,29.79,WNW,290,23.0,23.0,53,0.00,CLR,FEW,0.00,WeatherDisplay:10.37,2013-02-21 04:06:00,
2013-02-20 23:11:00,23.9,9.2,29.79,WNW,302,18.4,18.4,53,0.00,CLR,FEW,0.00,WeatherDisplay:10.37,2013-02-21 04:11:00,
2013-02-20 23:16:00,23.9,9.2,29.79,West,272,12.7,12.7,53,0.00,CLR,FEW,0.00,WeatherDisplay:10.37,2013-02-21 04:16:00,
2013-02-20 23:21:00,23.9,9.2,29.79,WNW,285,27.6,27.6,53,0.00,CLR,FEW,0.00,WeatherDisplay:10.37,2013-02-21 04:21:00,
2013-02-20 23:26:00,23.9,9.2,29.79,WNW,287,18.4,18.4,53,0.00,CLR,FEW,0.00,WeatherDisplay:10.37,2013-02-21 04:26:00,
2013-02-20 23:31:00,23.9,9.2,29.79,WNW,285,13.8,13.8,53,0.00,CLR,FEW,0.00,WeatherDisplay:10.37,2013-02-21 04:31:00,
2013-02-20 23:36:00,23.8,9.1,29.79,WNW,301,17.3,17.3,53,0.00,CLR,FEW,0.00,WeatherDisplay:10.37,2013-02-21 04:36:00,
2013-02-20 23:41:00,23.8,9.1,29.79,NW,307,15.0,15.0,53,0.00,CLR,FEW,0.00,WeatherDisplay:10.37,2013-02-21 04:41:00,
2013-02-20 23:46:00,23.8,9.1,29.79,NW,317,11.5,11.5,53,0.00,CLR,FEW,0.00,WeatherDisplay:10.37,2013-02-21 04:46:00,
2013-02-20 23:51:00,23.8,9.1,29.79,WNW,297,17.3,17.3,53,0.00,CLR,FEW,0.00,WeatherDisplay:10.37,2013-02-21 04:51:00,
2013-02-20 23:56:00,23.7,9.0,29.80,NW,315,15.0,15.0,53,0.00,CLR,FEW,0.00,WeatherDisplay:10.37,2013-02-21 04:56:00,